GFSMW_sfc_temp_231.txt.gz
Temp
87 88 87 87 86 85 84 83 82 82 82 82 83 84 86 88 90 91 89 88 89 89 87 89 88 88 85 85 84 83 82 86 83 83 85 84 83 81 82 83 82 80 80
85 85 86 86 85 84 83 82 82 82 82 84 84 86 86 89 89 90 88 89 89 89 89 87 88 86 87 85 84 82 81 80 81 78 82 79 76 76 79 81 77 78 72
84 84 84 84 86 84 82 82 82 82 82 82 83 84 85 86 88 89 90 89 88 89 88 88 87 86 86 88 83 84 82 79 81 81 78 78 77 76 76 76 73 77 79
86 85 84 84 85 85 86 84 82 82 82 81 82 81 85 85 88 88 89 89 88 89 89 88 87 85 87 85 85 83 82 80 78 83 82 79 78 76 72 77 76 75 76
87 87 86 85 86 87 86 85 83 82 82 80 81 82 82 87 88 88 85 85 86 88 90 88 87 85 88 86 84 83 81 84 82 81 81 79 80 78 77 75 75 73 78
88 88 88 87 87 88 87 86 83 81 81 80 80 80 81 83 85 85 87 89 90 91 88 89 87 86 86 86 85 81 81 81 80 81 80 80 79 78 78 75 74 73 75
87 87 86 85 85 85 85 86 83 81 81 81 81 80 81 82 82 84 87 86 90 90 88 87 87 89 86 85 84 81 81 80 80 78 80 80 79 79 79 76 76 73 75
90 88 88 87 86 85 85 85 83 82 82 81 80 81 81 84 86 85 87 88 89 89 87 88 88 87 87 85 83 83 83 80 79 75 74 78 77 77 76 76 74 73 73
90 89 90 89 87 86 85 85 83 82 83 83 82 80 81 82 85 84 85 88 86 89 88 88 88 87 87 84 82 83 80 77 75 73 73 76 76 77 76 76 75 73 71
90 91 89 88 89 88 88 87 86 83 84 84 83 83 82 82 83 84 84 85 86 85 87 87 87 87 86 83 81 79 73 75 77 77 73 73 75 76 76 75 75 74 72
90 92 91 90 90 91 89 87 87 85 83 84 84 84 82 82 82 83 84 85 85 85 85 86 86 86 86 83 80 75 74 74 73 73 73 70 70 74 75 74 74 73 72
90 93 92 91 90 90 89 88 86 85 85 84 83 82 82 82 81 81 83 85 84 85 85 85 85 85 86 83 80 75 71 69 73 72 72 71 73 70 69 73 68 68 68
84 88 89 88 87 86 82 86 86 85 85 84 83 82 81 80 80 81 82 83 83 84 85 85 84 85 85 83 78 74 69 69 74 73 72 70 69 68 70 69 70 70 68
78 81 82 84 85 84 83 84 83 88 85 84 83 82 82 82 82 82 82 82 83 83 84 85 85 85 85 83 79 75 68 70 73 73 72 71 70 69 68 68 67 67 69
73 75 75 77 81 82 83 84 85 83 80 82 82 82 84 84 84 83 83 84 84 85 85 85 86 85 86 85 78 74 68 67 72 71 70 71 69 65 68 72 68 68 69
67 69 73 74 72 74 79 83 83 83 83 81 82 83 83 83 83 83 84 83 83 84 84 85 86 85 88 66 67 71 71 67 71 68 70 69 67 65 64 63 62 65 66
65 66 67 70 73 76 74 76 82 83 82 81 83 82 82 82 82 83 83 83 83 84 83 84 85 85 86 64 64 67 70 66 69 70 70 73 73 69 69 63 62 61 60
63 64 66 68 71 75 76 76 76 82 82 82 82 82 82 82 82 82 82 82 84 83 83 84 84 85 84 62 62 65 68 66 68 71 71 72 69 70 69 69 68 67 66
63 63 66 67 69 70 71 76 77 80 82 82 82 82 82 82 82 81 81 82 83 83 83 85 84 83 75 59 60 66 70 65 65 71 71 71 70 61 61 69 67 67 65
64 64 66 67 69 69 70 69 75 79 80 83 83 83 83 82 82 82 82 83 83 83 86 84 85 75 76 57 58 66 72 63 64 69 69 63 68 57 57 69 68 66 66
65 67 66 65 65 66 68 68 68 68 71 75 78 82 82 82 83 82 83 82 82 84 82 83 83 77 74 65 57 59 70 65 63 73 71 73 57 54 53 57 71 67 66
66 68 66 63 65 65 67 68 66 68 71 73 75 79 82 84 85 82 82 82 82 81 81 82 76 75 76 62 56 57 62 62 66 72 75 72 54 52 52 58 54 54 61
66 69 69 67 65 64 66 68 68 67 68 74 75 75 79 81 82 82 81 82 82 85 83 79 75 72 74 74 56 55 57 59 67 71 70 58 52 51 54 54 53 53 73
65 67 68 67 65 63 64 64 66 67 67 69 72 73 70 69 77 84 85 85 85 85 85 79 75 72 71 76 70 65 61 59 65 60 66 64 63 61 67 64 63 74 75
62 66 65 66 65 66 65 64 63 64 70 72 70 69 70 70 69 73 72 84 87 84 86 84 80 73 71 74 67 67 68 70 64 62 66 70 71 71 71 72 72 73 72
58 60 63 65 65 67 64 61 61 62 65 68 68 66 67 68 67 66 66 55 55 51 52 56 74 82 66 54 52 51 50 51 52 65 66 70 72 72 72 72 72 73 69

GFSMW_sfc_temp_234.txt.gz
Temp
95 96 95 95 95 94 92 90 89 89 89 90 91 92 93 96 97 99 97 94 96 97 95 97 96 95 95 90 90 90 89 91 91 91 94 84 89 90 91 91 89 86 85
94 94 94 94 93 93 91 90 89 88 88 91 91 93 94 97 97 98 95 95 95 96 95 93 94 93 94 91 89 88 89 91 91 86 90 87 86 88 89 89 88 83 86
93 93 92 93 94 93 91 90 89 89 89 90 91 90 91 92 93 95 97 98 95 96 95 93 93 91 92 95 90 89 87 87 90 87 86 83 83 87 86 85 87 85 87
95 94 93 92 94 95 95 92 90 89 90 89 89 87 89 90 95 95 97 96 96 96 96 94 93 91 94 90 91 91 88 84 87 91 89 85 83 81 82 84 82 84 82
96 95 95 94 96 97 96 94 91 89 89 88 87 89 86 93 95 96 91 91 94 96 96 95 93 92 96 91 89 87 86 89 87 88 88 86 88 86 81 80 84 83 86
97 97 97 97 96 98 97 96 91 87 88 88 87 85 87 88 92 92 93 96 99 99 94 95 93 92 91 91 90 86 86 85 85 87 86 86 84 83 82 81 82 80 84
97 96 95 95 95 96 96 96 91 86 88 87 87 86 86 86 87 89 93 93 97 98 93 92 92 95 91 90 87 86 85 85 85 82 87 87 85 85 84 82 82 79 84
99 97 98 96 96 96 95 94 92 88 88 88 87 87 87 90 92 91 94 95 96 97 93 93 94 93 92 91 89 88 88 84 84 80 79 86 85 85 83 81 79 78 82
99 98 99 99 97 97 96 95 93 90 89 89 88 86 87 87 92 91 91 94 93 96 93 94 93 93 92 90 87 86 79 84 83 80 80 84 85 85 84 84 82 77 75
99 100 100 98 100 100 99 97 96 92 91 91 90 89 88 88 89 90 89 92 93 91 92 92 92 92 91 91 88 85 80 79 85 85 79 79 82 84 83 82 82 81 77
101 102 103 101 102 103 102 99 97 95 92 92 92 90 89 89 88 89 90 90 91 90 90 90 91 91 90 89 86 84 79 75 79 80 79 76 77 81 82 82 81 79 77
99 103 104 103 101 101 100 99 97 95 93 92 91 90 89 89 88 88 89 90 89 90 90 90 89 90 91 89 84 82 80 75 79 78 77 77 80 76 76 81 74 73 75
93 99 102 100 99 99 98 97 96 96 95 92 90 89 88 87 86 86 87 88 89 90 91 90 88 89 89 89 84 83 78 74 80 79 78 76 75 74 76 75 77 77 75
86 91 94 94 95 95 95 95 96 98 95 93 90 88 88 88 88 87 88 88 88 88 89 90 89 89 90 89 84 82 78 73 79 79 78 77 76 74 74 75 74 74 76
78 83 84 87 89 91 91 91 92 94 95 90 90 89 90 90 90 89 89 90 89 89 89 90 90 90 91 91 83 82 78 74 77 77 78 78 71 65 67 79 73 73 75
71 76 79 79 80 82 87 89 90 91 92 90 88 89 89 90 89 89 89 89 89 88 89 89 90 90 94 69 71 78 80 75 72 75 76 73 69 67 63 64 62 64 69
69 69 72 75 77 83 83 85 89 91 88 87 87 88 88 87 88 89 89 88 88 88 87 88 89 90 91 66 67 70 82 77 68 76 75 78 78 73 73 63 63 62 62
70 69 70 72 75 83 81 80 87 87 89 88 88 88 87 87 87 87 87 87 88 88 87 88 88 89 90 63 63 67 79 76 69 76 78 79 73 74 74 75 73 73 71
69 68 71 73 74 79 73 75 82 87 87 87 88 89 88 87 87 86 86 87 88 87 88 89 88 88 80 60 61 69 78 75 71 75 78 77 75 63 63 74 73 72 71
71 71 73 73 74 73 73 73 77 86 86 89 89 89 88 87 87 87 86 87 88 88 92 89 89 82 85 58 59 70 84 75 73 71 76 67 73 59 59 73 73 72 73
70 72 73 72 70 72 72 71 72 75 79 83 86 87 86 86 88 88 88 87 87 90 87 88 89 89 84 68 57 60 83 79 72 66 75 78 58 55 55 55 75 70 72
69 74 74 73 72 72 74 77 75 70 71 81 84 85 83 84 91 87 87 87 86 84 86 85 86 86 84 65 56 57 64 68 73 72 77 77 55 53 53 59 56 57 61
70 73 75 73 73 72 70 73 70 71 74 77 81 80 81 75 77 84 84 84 85 88 88 89 88 81 82 79 58 55 57 60 69 77 71 59 53 52 54 55 55 52 76
70 72 73 73 70 70 68 64 66 69 70 75 77 80 80 79 81 82 78 73 79 79 88 92 85 88 85 85 76 67 64 59 68 62 69 67 67 64 69 66 65 77 81
70 70 71 73 71 70 69 67 64 68 72 73 74 75 71 72 72 74 74 71 68 60 65 75 90 89 85 86 73 68 70 67 67 70 68 72 75 75 77 77 78 79 78
69 69 70 71 71 72 71 70 70 69 70 75 79 78 73 76 74 71 67 55 56 53 51 51 61 91 69 55 55 53 52 53 54 67 62 65 75 78 78 78 78 79 75

GFSMW_sfc_temp_237.txt.gz
Temp
98 99 99 99 97 96 93 92 91 90 91 92 93 94 95 98 100 102 97 96 98 98 96 99 98 98 96 92 92 91 86 94 93 91 94 91 92 92 93 93 91 87 87
97 97 97 97 97 95 93 91 91 90 90 93 93 96 96 100 100 100 97 97 97 97 97 94 95 92 94 89 91 88 90 94 93 88 89 87 88 91 91 90 89 85 88
96 96 95 96 97 96 94 92 91 91 90 92 94 93 93 93 95 96 97 94 98 98 97 95 94 93 94 95 91 90 88 88 92 90 86 82 81 86 89 87 89 85 88
98 97 96 95 97 97 97 94 92 91 91 91 93 90 92 91 97 97 98 98 98 97 98 96 94 93 94 91 92 91 87 87 88 91 92 87 83 79 80 88 84 85 83
99 99 98 96 99 99 99 97 93 91 92 90 90 92 87 95 96 97 94 94 95 97 99 97 95 93 96 91 90 88 86 91 88 89 88 87 89 86 83 79 85 87 87
100 100 100 99 98 101 100 99 93 90 90 90 89 88 90 90 93 94 94 96 100 99 96 96 95 95 92 91 91 88 86 85 86 86 87 87 85 83 82 81 82 83 86
101 99 98 98 97 99 99 99 94 89 90 90 90 88 88 88 89 90 93 94 98 99 92 94 94 95 93 92 89 87 86 86 84 82 85 88 86 85 84 82 81 80 86
103 101 100 99 99 99 99 99 96 91 90 90 89 89 88 91 92 92 95 97 98 99 94 96 96 95 94 93 90 87 87 84 84 81 80 85 86 86 84 81 79 77 81
102 102 103 101 100 100 99 99 97 93 91 91 90 89 88 88 93 93 92 96 94 98 95 95 95 95 94 93 89 87 85 84 84 82 82 84 86 85 85 84 83 78 73
104 104 103 102 103 103 102 101 100 95 93 93 91 90 89 89 90 92 92 94 96 95 93 94 94 94 94 92 89 88 83 80 86 86 80 79 83 85 85 83 83 82 77
105 106 106 105 105 106 105 103 101 98 94 94 94 92 91 91 90 90 91 91 93 93 91 92 92 92 92 92 89 86 83 81 81 82 80 78 78 80 82 83 81 79 77
104 106 108 108 106 106 105 104 101 99 96 95 93 92 92 91 90 89 91 92 91 92 92 91 91 91 91 92 88 85 85 80 82 80 79 78 81 77 77 82 76 76 77
97 102 107 106 105 104 104 102 102 101 99 95 94 92 90 89 89 89 89 91 91 91 92 91 90 90 90 90 88 86 83 80 81 81 79 78 78 75 77 76 76 77 78
90 95 97 102 102 101 102 101 102 103 100 97 94 92 91 90 90 89 89 89 90 90 90 91 91 90 90 90 89 85 82 81 80 80 80 79 78 76 76 76 76 75 76
81 87 90 88 91 97 98 99 100 100 100 96 94 92 92 92 92 91 90 91 90 90 90 91 91 90 91 94 87 85 83 79 79 78 80 78 71 66 67 78 73 72 74
76 78 78 84 86 87 92 94 94 94 97 95 93 93 92 92 91 91 91 90 90 90 90 89 90 90 94 73 74 82 83 80 77 74 75 73 70 67 65 66 64 67 68
75 75 76 75 78 85 87 88 92 94 93 92 93 92 91 90 90 91 91 90 90 90 89 89 90 90 92 68 69 73 85 80 76 74 76 79 79 73 73 65 64 65 65
72 73 75 75 78 85 84 83 87 90 92 91 90 90 89 89 89 90 89 89 90 89 89 88 89 90 91 65 66 70 83 80 76 75 78 79 74 76 75 76 75 73 71
72 72 74 76 76 80 82 81 84 87 89 91 90 90 90 89 89 88 88 89 89 89 89 89 89 88 85 61 64 72 81 78 75 76 77 79 76 65 65 76 74 73 70
71 72 74 78 79 79 80 81 82 85 88 90 91 91 91 89 88 88 88 88 89 89 92 90 90 83 83 59 61 72 85 77 77 75 74 69 75 62 62 74 74 73 72
72 76 76 74 74 78 79 79 78 77 80 86 89 92 90 88 88 87 89 88 88 88 87 88 88 89 85 70 58 61 86 81 79 78 74 79 59 58 58 58 74 69 72
73 75 76 74 76 74 76 78 73 74 77 82 86 88 88 90 92 87 86 88 87 86 87 85 88 90 85 66 57 59 60 72 79 76 76 74 56 55 56 60 59 61 63
72 73 73 73 72 73 73 72 72 74 74 79 83 85 83 86 86 83 80 80 83 84 86 89 85 86 84 77 59 56 59 63 76 78 71 58 53 53 56 57 57 55 74
74 72 71 71 69 70 71 69 70 74 77 75 81 82 83 81 85 88 79 77 75 76 76 80 74 82 81 78 76 66 67 62 71 63 64 64 66 65 70 66 65 76 81
75 75 72 70 70 70 69 70 71 73 78 79 80 80 82 81 80 79 76 74 77 71 73 71 71 69 75 77 69 66 71 68 70 71 69 67 70 73 75 76 77 79 79
74 73 73 72 73 71 72 69 69 69 72 77 85 82 84 85 83 81 73 56 54 51 50 52 60 67 60 54 54 54 53 54 55 70 68 70 69 76 78 78 78 80 76

GFSMW_sfc_temp_240.txt.gz
Temp
96 97 97 96 94 91 89 88 88 86 87 87 86 88 88 89 92 91 93 94 94 93 90 90 90 88 84 83 86 84 82 83 85 81 81 82 85 86 82 82 80 80 80
95 95 96 95 93 90 88 87 87 86 87 88 87 89 89 86 91 88 93 95 95 93 91 90 88 86 83 84 84 82 82 83 83 79 77 74 79 81 84 81 80 79 79
93 93 93 93 94 89 88 87 87 86 86 88 89 89 88 89 89 89 88 92 93 94 93 91 89 88 84 85 84 82 82 80 82 82 77 71 69 73 79 79 79 79 77
96 94 93 93 94 93 92 88 88 86 87 88 87 86 84 84 87 88 88 91 94 94 94 92 90 88 85 84 84 85 82 81 78 79 81 81 77 71 69 76 76 76 77
97 95 95 94 96 96 94 91 88 87 87 86 86 87 85 86 89 89 88 90 91 93 96 92 92 90 87 84 84 82 81 82 78 76 76 76 76 77 70 67 71 75 76
98 97 96 95 95 98 97 94 88 86 86 86 86 84 85 84 86 87 88 87 89 90 92 94 90 88 88 85 85 83 83 81 78 76 76 73 71 69 68 66 68 69 73
98 97 94 93 93 95 96 95 88 86 87 87 86 85 85 87 86 86 87 86 89 89 89 91 90 89 89 85 86 83 83 80 77 74 73 74 73 73 71 68 67 66 71
99 98 98 96 94 95 95 95 88 86 87 87 86 85 85 86 86 86 86 88 89 90 90 91 92 92 89 88 85 82 82 79 77 76 74 73 74 73 72 69 67 65 67
98 98 100 99 96 96 95 95 89 87 87 87 86 85 85 84 85 85 85 88 89 93 91 92 92 92 90 87 85 81 81 81 80 76 74 72 73 74 73 72 70 67 63
100 101 100 98 99 99 99 98 95 89 88 89 88 87 86 85 85 87 88 87 89 89 91 91 91 91 89 89 84 81 80 80 78 76 74 71 71 71 73 72 71 70 66
102 103 103 102 102 102 102 100 98 92 89 89 89 87 86 86 86 85 86 87 89 89 89 89 89 89 89 88 85 81 80 80 79 77 74 73 71 71 72 72 71 68 68
97 96 103 104 103 102 101 100 97 95 91 89 88 86 86 86 86 85 86 87 86 88 89 88 88 88 88 87 87 84 79 79 78 76 74 71 75 71 70 70 69 70 70
86 92 88 92 93 100 100 98 97 97 93 89 89 87 86 85 84 85 85 86 86 86 88 87 86 87 87 87 87 82 78 79 78 77 75 73 73 70 71 70 70 68 70
83 82 84 85 76 76 93 95 98 100 95 91 89 87 87 86 86 86 86 86 86 86 86 86 87 86 87 86 86 81 78 79 78 75 75 75 70 68 68 69 67 68 68
79 80 79 79 83 77 89 94 93 95 95 89 89 88 89 89 88 87 87 87 86 87 86 86 86 87 87 89 85 81 79 76 75 75 74 69 68 66 68 69 65 65 65
74 76 78 79 79 84 87 88 91 92 93 91 90 89 88 88 87 87 87 87 86 86 86 85 86 85 90 79 73 79 80 77 74 71 68 67 67 66 66 66 66 65 62
71 72 74 75 78 79 83 82 83 86 92 91 92 90 89 87 87 87 87 86 85 86 85 85 85 84 85 68 70 74 80 77 73 71 69 69 73 68 66 65 66 66 67
71 71 71 73 77 81 81 82 84 84 86 90 90 90 89 88 87 86 85 85 86 85 85 85 85 84 86 66 67 71 78 76 72 73 71 71 67 69 70 67 66 66 64
70 71 73 73 75 79 81 80 81 84 85 87 88 89 88 86 86 85 85 85 85 85 85 86 84 83 82 63 64 71 79 74 72 73 74 71 71 65 67 71 68 64 63
73 72 74 75 74 75 79 80 80 78 80 87 88 88 88 86 86 85 84 85 85 84 87 84 84 80 82 60 61 70 81 73 72 71 73 70 70 62 64 68 69 66 65
73 73 73 72 72 74 73 74 77 74 77 82 84 85 87 87 87 86 85 85 84 84 82 84 83 82 81 69 59 61 81 74 73 71 71 70 61 58 59 59 68 66 68
72 73 70 69 70 71 71 70 72 72 75 78 82 85 85 88 88 85 85 84 83 83 83 82 82 84 83 66 58 59 59 70 73 71 72 67 57 56 57 60 60 60 62
72 72 70 69 69 70 70 68 69 70 72 75 81 83 84 83 84 83 82 81 84 82 82 80 82 81 80 73 59 55 60 62 72 74 70 58 54 54 57 59 59 57 65
71 70 70 68 67 69 68 66 67 70 72 76 76 77 79 77 83 83 80 80 80 82 79 78 78 77 77 73 68 62 65 62 67 62 62 61 61 63 65 61 61 65 68
68 71 71 68 68 69 69 68 68 70 71 71 78 79 81 81 78 80 74 75 70 69 74 72 73 72 75 75 65 63 68 71 65 65 64 64 64 65 67 67 66 68 70
68 66 68 71 71 70 69 68 68 68 69 71 73 77 81 79 80 82 77 54 55 50 48 47 53 72 62 56 53 54 53 54 55 65 61 62 65 66 67 69 69 69 70

GFSMW_sfc_temp_246.txt.gz
Temp
82 83 83 82 80 77 74 74 74 74 74 73 74 74 74 75 78 79 82 81 80 81 78 78 78 78 76 76 76 74 73 74 72 71 70 73 78 75 70 71 70 70 71
80 81 82 81 79 77 75 73 75 74 74 74 73 76 76 77 77 79 80 82 84 82 81 79 78 78 76 75 75 74 72 71 70 68 64 66 70 69 70 68 70 68 71
80 79 80 80 80 78 75 74 74 74 75 76 75 75 76 77 77 77 78 81 83 83 82 80 78 77 76 74 75 74 73 69 69 68 66 62 62 62 67 68 68 67 68
83 80 80 78 79 80 79 76 75 74 76 75 74 74 74 74 75 75 78 80 82 82 82 81 79 78 76 75 75 76 73 69 65 67 69 65 64 61 61 64 65 66 68
84 80 81 81 81 83 81 78 76 75 75 74 75 73 72 73 74 75 77 78 79 81 83 81 79 77 76 75 75 74 72 70 66 63 62 61 61 59 58 56 59 61 64
85 83 83 82 81 83 83 81 76 75 74 74 75 74 73 73 72 74 75 75 77 77 80 82 80 78 76 76 75 74 72 69 65 63 61 61 61 59 58 55 56 56 60
83 83 81 80 80 81 82 81 77 75 74 74 74 74 74 73 73 74 74 73 75 77 78 79 79 77 76 77 75 73 71 70 66 65 62 60 60 60 59 57 55 56 58
79 78 83 81 82 82 81 82 79 77 75 76 74 74 74 74 73 74 74 74 76 77 80 81 79 78 78 77 75 72 71 69 67 66 64 61 59 60 59 60 57 55 54
80 81 83 84 82 83 82 81 79 79 77 77 76 74 74 74 73 74 74 73 77 81 80 80 79 78 78 77 75 72 71 69 66 65 64 61 59 60 60 59 59 58 52
80 81 82 85 86 83 84 83 81 80 79 79 76 77 75 74 74 73 73 73 76 78 80 79 79 78 77 76 74 72 71 68 66 65 64 61 59 60 60 59 58 57 55
74 77 76 77 79 80 83 85 83 80 79 79 78 76 76 75 75 74 74 74 75 77 77 78 78 78 77 75 73 72 71 68 66 65 63 63 61 59 59 59 58 58 56
71 72 72 73 74 74 75 81 84 82 80 80 79 78 77 76 75 75 75 75 74 76 77 77 77 77 77 75 73 72 72 68 66 65 64 63 66 60 59 58 58 57 57
69 69 69 68 71 73 72 76 73 72 78 80 79 78 77 76 76 77 75 75 75 75 76 76 76 76 76 76 75 73 72 71 67 66 64 62 61 58 57 57 56 56 59
67 67 68 68 67 69 71 72 71 72 73 73 78 78 79 78 78 78 76 75 75 75 75 75 76 76 76 76 74 72 70 70 67 67 64 62 60 58 57 57 56 56 55
65 66 67 67 69 67 70 72 74 73 71 71 72 80 80 80 79 77 78 78 76 77 77 76 76 76 77 79 74 72 69 67 64 65 62 61 63 64 62 57 55 55 54
66 66 67 68 68 69 68 72 72 72 73 74 75 79 80 80 78 79 78 78 78 77 76 76 76 76 80 73 69 72 69 67 65 62 60 62 66 65 65 64 63 58 53
64 64 64 67 67 69 72 71 72 73 73 74 76 81 82 80 80 80 78 78 77 77 77 76 76 76 76 70 67 70 71 66 64 62 61 63 65 62 60 63 63 63 62
63 67 65 66 68 68 69 69 70 71 74 74 74 77 80 79 81 81 80 81 79 77 78 77 77 75 74 66 64 68 68 63 63 63 62 62 58 59 59 56 55 55 54
61 65 69 67 66 66 67 67 70 70 71 72 72 73 75 77 77 78 79 79 76 76 77 78 78 77 73 62 62 67 65 62 64 65 61 62 60 60 60 56 54 53 54
63 64 67 68 65 66 66 70 66 66 66 68 70 72 74 76 77 77 77 77 77 77 77 77 77 71 73 59 60 66 69 63 63 62 61 63 62 59 58 56 54 52 52
63 63 65 64 64 65 69 67 67 64 66 68 70 71 74 75 75 75 76 76 76 77 77 76 76 74 71 64 59 61 67 63 61 62 63 64 59 57 56 57 56 55 54
61 62 62 62 64 65 67 65 64 64 68 69 69 71 72 74 76 75 75 76 76 75 74 73 73 74 73 62 58 59 62 63 62 62 62 65 57 54 55 57 56 55 58
61 61 61 62 63 64 65 64 63 65 66 68 70 71 73 74 73 74 74 74 73 72 72 72 73 73 73 68 58 57 59 60 64 64 63 59 54 54 55 55 55 57 58
59 60 60 60 61 64 65 64 65 66 66 67 68 68 69 69 70 70 69 68 68 69 69 69 68 70 71 68 65 62 62 61 64 63 62 59 58 60 60 57 57 58 59
59 59 59 60 61 63 63 64 64 65 65 66 65 66 67 68 69 63 63 66 58 57 66 65 65 66 67 62 52 61 64 65 60 58 57 57 55 56 60 59 56 57 55
58 58 57 58 60 59 59 60 62 63 64 65 64 63 65 66 68 66 64 52 51 48 48 46 55 59 50 46 48 50 52 52 54 58 57 56 56 56 58 59 59 58 57